ALXO2: Washita River, Alex, OK

Data processed at Sun Jan 20 2019 23:32


All information presented herein is the property of the government of the United States of America and may be revised or deleted at any time without prior notice.
Dissemination of this information without the expressed written consent of the Public Affairs Office, Tulsa District U.S. Army Corps of Engineers is strictly prohibited.
These data are gathered electronically and, as presented, have not undergone any form of quality control. These data are not guaranteed to be valid or correct.
Go to home page.
Go to station list.
Go to home page.

Upstream stations:

Downstream station:
Previous Day
Next Day
Current Day
    
SHEF ID:       ALXO2     Washita River at Alex, OK
STATION TYPE:  

               PRECIP     STAGE  RIV-FLOW  BAT-LOAD
                   in        ft       cfs      volt
              Ccp-Rev   Ccp-Rev   Ccp-Rev   Ccp-Rev
(US/Central)
01/20 00:00      0.00      2.75       602     12.49
01/20 01:00      0.00      2.74       598     12.41
01/20 02:00      0.00      2.74       598     12.41
01/20 03:00      0.00      2.74       598     12.41
01/20 04:00      0.00      2.75       602     12.41
01/20 05:00      0.00      2.73       594     12.41
01/20 06:00      0.00      2.74       598     12.33
01/20 07:00      0.00      2.73       594     12.33
01/20 08:00      0.00      2.73       594     12.33
01/20 09:00      0.00      2.73       594     12.33
01/20 10:00      0.00      2.74       598     12.73
01/20 11:00      0.00      2.74       598     13.44
01/20 12:00      0.00      2.74       598     13.21
01/20 13:00      0.00      2.73       594     13.13
01/20 14:00      0.00      2.72       589     13.05
01/20 15:00      0.00      2.72       589     12.97
01/20 16:00      0.00      2.72       589     12.97
01/20 17:00      0.00      2.70       581     12.97
01/20 18:00      0.00      2.70       581     12.73
01/20 19:00      0.00      2.70       581     12.65
01/20 20:00      0.00      2.70       581     12.65
01/20 21:00      0.00      2.70       581     12.57
01/20 22:00      0.00      2.69       577     12.57
01/20 23:00      0.00      2.70       581     12.57